Location: Altleiningen
(49.5078°N, 8.0741°E)
Time: 22:20:41
(UTC+00:00)

ERBS - Pass Details

Date: 03 March 2021
Orbit: 408 x 412 km, 57.0° (Epoch: 13 April)

Event Time Altitude Azimuth Distance (km) Brightness Sun altitude
Rises 18:56:28 0° 264° (W) 2,350 7.5 -17.4°
Reaches altitude 10° 18:58:41 10° 275° (W) 1,489 6.3 -17.7°
Maximum altitude 19:01:43 32° 340° (NNW) 738 3.7 -18.2°
Enters shadow 19:03:04 23° 24° (NNE) 935 3.9 -18.4°
